Year,Month,Day,Hour,Minute,Value (Times are PST for temperature in C)
2015,09,28,00,00,14.20
2015,09,28,00,01,14.20
2015,09,28,00,02,14.20
2015,09,28,00,03,14.20
2015,09,28,00,04,14.20
2015,09,28,00,05,14.20
2015,09,28,00,06,14.20
2015,09,28,00,07,14.20
2015,09,28,00,08,14.30
2015,09,28,00,09,14.30
2015,09,28,00,10,14.30
2015,09,28,00,11,14.30
2015,09,28,00,12,14.30
2015,09,28,00,13,14.30
2015,09,28,00,14,14.30
2015,09,28,00,15,14.30
2015,09,28,00,16,14.30
2015,09,28,00,17,14.40
2015,09,28,00,18,14.40
2015,09,28,00,19,14.40
2015,09,28,00,20,14.40
2015,09,28,00,21,14.40
2015,09,28,00,22,14.40
2015,09,28,00,23,14.40
2015,09,28,00,24,14.40
2015,09,28,00,25,14.40
2015,09,28,00,26,14.40
2015,09,28,00,27,14.40
2015,09,28,00,28,14.40
2015,09,28,00,29,14.40
2015,09,28,00,30,14.40
2015,09,28,00,31,14.40
2015,09,28,00,32,14.40
2015,09,28,00,33,14.40
2015,09,28,00,34,14.40
2015,09,28,00,35,14.40
2015,09,28,00,36,14.30
2015,09,28,00,37,14.30
2015,09,28,00,38,14.30
2015,09,28,00,39,14.30
2015,09,28,00,40,14.30
2015,09,28,00,41,14.30
2015,09,28,00,42,14.20
2015,09,28,00,43,14.20
2015,09,28,00,44,14.20
2015,09,28,00,45,14.20
2015,09,28,00,46,14.20
2015,09,28,00,47,14.20
2015,09,28,00,48,14.20
2015,09,28,00,49,14.20
2015,09,28,00,50,14.10
2015,09,28,00,51,14.10
2015,09,28,00,52,14.10
2015,09,28,00,53,14.10
2015,09,28,00,54,14.10
2015,09,28,00,55,14.10
2015,09,28,00,56,14.00
2015,09,28,00,57,14.00
2015,09,28,00,58,14.00
2015,09,28,00,59,14.00
2015,09,28,01,00,14.00
2015,09,28,01,01,13.90
2015,09,28,01,02,13.90
2015,09,28,01,03,13.90
2015,09,28,01,04,13.90
2015,09,28,01,05,13.90
2015,09,28,01,06,13.90
2015,09,28,01,07,13.90
2015,09,28,01,08,13.90
2015,09,28,01,09,13.80
2015,09,28,01,10,13.80
2015,09,28,01,11,13.80
2015,09,28,01,12,13.80
2015,09,28,01,13,13.80
2015,09,28,01,14,13.80
2015,09,28,01,15,13.80
2015,09,28,01,16,13.80
2015,09,28,01,17,13.80
2015,09,28,01,18,13.80
2015,09,28,01,19,13.80
2015,09,28,01,20,13.80
2015,09,28,01,21,13.80
2015,09,28,01,22,13.80
2015,09,28,01,23,13.80
2015,09,28,01,24,13.70
2015,09,28,01,25,13.70
2015,09,28,01,26,13.70
2015,09,28,01,27,13.70
2015,09,28,01,28,13.70
2015,09,28,01,29,13.70
2015,09,28,01,30,13.60
2015,09,28,01,31,13.60
2015,09,28,01,32,13.60
2015,09,28,01,33,13.60
2015,09,28,01,34,13.60
2015,09,28,01,35,13.60
2015,09,28,01,36,13.60
2015,09,28,01,37,13.60
2015,09,28,01,38,13.60
2015,09,28,01,39,13.60
2015,09,28,01,40,13.50
2015,09,28,01,41,13.50
2015,09,28,01,42,13.50
2015,09,28,01,43,13.50
2015,09,28,01,44,13.50
2015,09,28,01,45,13.40
2015,09,28,01,46,13.40
2015,09,28,01,47,13.40
2015,09,28,01,48,13.40
2015,09,28,01,49,13.40
2015,09,28,01,50,13.40
2015,09,28,01,51,13.40
2015,09,28,01,52,13.40
2015,09,28,01,53,13.40
2015,09,28,01,54,13.40
2015,09,28,01,55,13.40
2015,09,28,01,56,13.40
2015,09,28,01,57,13.40
2015,09,28,01,58,13.40
2015,09,28,01,59,13.40
2015,09,28,02,00,13.40
2015,09,28,02,01,13.40
2015,09,28,02,02,13.30
2015,09,28,02,03,13.30
2015,09,28,02,04,13.30
2015,09,28,02,05,13.30
2015,09,28,02,06,13.30
2015,09,28,02,07,13.30
2015,09,28,02,08,13.30
2015,09,28,02,09,13.30
2015,09,28,02,10,13.30
2015,09,28,02,11,13.30
2015,09,28,02,12,13.30
2015,09,28,02,13,13.30
2015,09,28,02,14,13.30
2015,09,28,02,15,13.30
2015,09,28,02,16,13.30
2015,09,28,02,17,13.30
2015,09,28,02,18,13.30
2015,09,28,02,19,13.30
2015,09,28,02,20,13.30
2015,09,28,02,21,13.30
2015,09,28,02,22,13.30
2015,09,28,02,23,13.30
2015,09,28,02,24,13.30
2015,09,28,02,25,13.30
2015,09,28,02,26,13.30
2015,09,28,02,27,13.30
2015,09,28,02,28,13.30
2015,09,28,02,29,13.30
2015,09,28,02,30,13.30
2015,09,28,02,31,13.30
2015,09,28,02,32,13.30
2015,09,28,02,33,13.30
2015,09,28,02,34,13.30
2015,09,28,02,35,13.30
2015,09,28,02,36,13.30
2015,09,28,02,37,13.30
2015,09,28,02,38,13.30
2015,09,28,02,39,13.30
2015,09,28,02,40,13.30
2015,09,28,02,41,13.30
2015,09,28,02,42,13.30
2015,09,28,02,43,13.30
2015,09,28,02,44,13.30
2015,09,28,02,45,13.30
2015,09,28,02,46,13.30
2015,09,28,02,47,13.30
2015,09,28,02,48,13.30
2015,09,28,02,49,13.30
2015,09,28,02,50,13.30
2015,09,28,02,51,13.30
2015,09,28,02,52,13.30
2015,09,28,02,53,13.30
2015,09,28,02,54,13.20
2015,09,28,02,55,13.30
2015,09,28,02,56,13.20
2015,09,28,02,57,13.20
2015,09,28,02,58,13.20
2015,09,28,02,59,13.20
2015,09,28,03,00,13.20
2015,09,28,03,01,13.20
2015,09,28,03,02,13.20
2015,09,28,03,03,13.20
2015,09,28,03,04,13.20
2015,09,28,03,05,13.20
2015,09,28,03,06,13.20
2015,09,28,03,07,13.20
2015,09,28,03,08,13.20
2015,09,28,03,09,13.10
2015,09,28,03,10,13.10
2015,09,28,03,11,13.10
2015,09,28,03,12,13.10
2015,09,28,03,13,13.10
2015,09,28,03,14,13.10
2015,09,28,03,15,13.10
2015,09,28,03,16,13.10
2015,09,28,03,17,13.10
2015,09,28,03,18,13.10
2015,09,28,03,19,13.10
2015,09,28,03,20,13.10
2015,09,28,03,21,13.10
2015,09,28,03,22,13.10
2015,09,28,03,23,13.10
2015,09,28,03,24,13.10
2015,09,28,03,25,13.10
2015,09,28,03,26,13.10
2015,09,28,03,27,13.10
2015,09,28,03,28,13.10
2015,09,28,03,29,13.10
2015,09,28,03,30,13.10
2015,09,28,03,31,13.10
2015,09,28,03,32,13.10
2015,09,28,03,33,13.10
2015,09,28,03,34,13.10
2015,09,28,03,35,13.10
2015,09,28,03,36,13.10
2015,09,28,03,37,13.10
2015,09,28,03,38,13.10
2015,09,28,03,39,13.10
2015,09,28,03,40,13.10
2015,09,28,03,41,13.10
2015,09,28,03,42,13.10
2015,09,28,03,43,13.00
2015,09,28,03,44,13.10
2015,09,28,03,45,13.00
2015,09,28,03,46,13.10
2015,09,28,03,47,13.10
2015,09,28,03,48,13.10
2015,09,28,03,49,13.10
2015,09,28,03,50,13.10
2015,09,28,03,51,13.10
2015,09,28,03,52,13.10
2015,09,28,03,53,13.10
2015,09,28,03,54,13.10
2015,09,28,03,55,13.10
2015,09,28,03,56,13.10
2015,09,28,03,57,13.10
2015,09,28,03,58,13.10
2015,09,28,03,59,13.10
2015,09,28,04,00,13.10
2015,09,28,04,01,13.10
2015,09,28,04,02,13.10
2015,09,28,04,03,13.10
2015,09,28,04,04,13.10
2015,09,28,04,05,13.10
2015,09,28,04,06,13.00
2015,09,28,04,07,13.00
2015,09,28,04,08,13.00
2015,09,28,04,09,13.00
2015,09,28,04,10,13.00
2015,09,28,04,11,13.00
2015,09,28,04,12,13.00
2015,09,28,04,13,13.00
2015,09,28,04,14,12.90
2015,09,28,04,15,12.90
2015,09,28,04,16,12.90
2015,09,28,04,17,12.90
2015,09,28,04,18,12.90
2015,09,28,04,19,12.90
2015,09,28,04,20,12.90
2015,09,28,04,21,12.90
2015,09,28,04,22,12.90
2015,09,28,04,23,12.90
2015,09,28,04,24,12.90
2015,09,28,04,25,12.90
2015,09,28,04,26,12.90
2015,09,28,04,27,12.90
2015,09,28,04,28,12.90
2015,09,28,04,29,12.90
2015,09,28,04,30,12.90
2015,09,28,04,31,12.90
2015,09,28,04,32,12.90
2015,09,28,04,33,12.90
2015,09,28,04,34,12.90
2015,09,28,04,35,12.90
2015,09,28,04,36,12.90
2015,09,28,04,37,12.90
2015,09,28,04,38,12.90
2015,09,28,04,39,12.90
2015,09,28,04,40,12.90
2015,09,28,04,41,12.90
2015,09,28,04,42,12.90
2015,09,28,04,43,12.90
2015,09,28,04,44,12.90
2015,09,28,04,45,12.90
2015,09,28,04,46,12.90
2015,09,28,04,47,12.90
2015,09,28,04,48,12.90
2015,09,28,04,49,12.90
2015,09,28,04,50,12.90
2015,09,28,04,51,12.90
2015,09,28,04,52,12.90
2015,09,28,04,53,12.90
2015,09,28,04,54,12.90
2015,09,28,04,55,12.90
2015,09,28,04,56,12.90
2015,09,28,04,57,12.90
2015,09,28,04,58,12.90
2015,09,28,04,59,12.90
2015,09,28,05,00,12.90
2015,09,28,05,01,12.90
2015,09,28,05,02,12.90
2015,09,28,05,03,12.90
2015,09,28,05,04,12.90
2015,09,28,05,05,12.90
2015,09,28,05,06,12.90
2015,09,28,05,07,12.90
2015,09,28,05,08,12.90
2015,09,28,05,09,12.80
2015,09,28,05,10,12.80
2015,09,28,05,11,12.80
2015,09,28,05,12,12.80
2015,09,28,05,13,12.80
2015,09,28,05,14,12.80
2015,09,28,05,15,12.80
2015,09,28,05,16,12.80
2015,09,28,05,17,12.80
2015,09,28,05,18,12.80
2015,09,28,05,19,12.80
2015,09,28,05,20,12.80
2015,09,28,05,21,12.80
2015,09,28,05,22,12.80
2015,09,28,05,23,12.80
2015,09,28,05,24,12.80
2015,09,28,05,25,12.80
2015,09,28,05,26,12.80
2015,09,28,05,27,12.80
2015,09,28,05,28,12.80
2015,09,28,05,29,12.70
2015,09,28,05,30,12.80
2015,09,28,05,31,12.70
2015,09,28,05,32,12.70
2015,09,28,05,33,12.70
2015,09,28,05,34,12.70
2015,09,28,05,35,12.70
2015,09,28,05,36,12.70
2015,09,28,05,37,12.70
2015,09,28,05,38,12.70
2015,09,28,05,39,12.70
2015,09,28,05,40,12.60
2015,09,28,05,41,12.60
2015,09,28,05,42,12.60
2015,09,28,05,43,12.60
2015,09,28,05,44,12.60
2015,09,28,05,45,12.60
2015,09,28,05,46,12.60
2015,09,28,05,47,12.60
2015,09,28,05,48,12.50
2015,09,28,05,49,12.60
2015,09,28,05,50,12.60
2015,09,28,05,51,12.60
2015,09,28,05,52,12.60
2015,09,28,05,53,12.60
2015,09,28,05,54,12.60
2015,09,28,05,55,12.60
2015,09,28,05,56,12.60
2015,09,28,05,57,12.60
2015,09,28,05,58,12.60
2015,09,28,05,59,12.60
2015,09,28,06,00,12.60
2015,09,28,06,01,12.60
2015,09,28,06,02,12.70
2015,09,28,06,03,12.70
2015,09,28,06,04,12.70
2015,09,28,06,05,12.70
2015,09,28,06,06,12.70
2015,09,28,06,07,12.70
2015,09,28,06,08,12.60
2015,09,28,06,09,12.60
2015,09,28,06,10,12.60
2015,09,28,06,11,12.60
2015,09,28,06,12,12.60
2015,09,28,06,13,12.60
2015,09,28,06,14,12.60
2015,09,28,06,15,12.60
2015,09,28,06,16,12.50
2015,09,28,06,17,12.50
2015,09,28,06,18,12.50
2015,09,28,06,19,12.50
2015,09,28,06,20,12.50
2015,09,28,06,21,12.50
2015,09,28,06,22,12.50
2015,09,28,06,23,12.50
2015,09,28,06,24,12.50
2015,09,28,06,25,12.50
2015,09,28,06,26,12.50
2015,09,28,06,27,12.50
2015,09,28,06,28,12.50
2015,09,28,06,29,12.50
2015,09,28,06,30,12.50
2015,09,28,06,31,12.50
2015,09,28,06,32,12.50
2015,09,28,06,33,12.50
2015,09,28,06,34,12.50
2015,09,28,06,35,12.50
2015,09,28,06,36,12.50
2015,09,28,06,37,12.50
2015,09,28,06,38,12.50
2015,09,28,06,39,12.50
2015,09,28,06,40,12.50
2015,09,28,06,41,12.50
2015,09,28,06,42,12.50
2015,09,28,06,43,12.50
2015,09,28,06,44,12.50
2015,09,28,06,45,12.50
2015,09,28,06,46,12.50
2015,09,28,06,47,12.50
2015,09,28,06,48,12.50
2015,09,28,06,49,12.50
2015,09,28,06,50,12.50
2015,09,28,06,51,12.50
2015,09,28,06,52,12.40
2015,09,28,06,53,12.40
2015,09,28,06,54,12.40
2015,09,28,06,55,12.40
2015,09,28,06,56,12.40
2015,09,28,06,57,12.40
2015,09,28,06,58,12.40
2015,09,28,06,59,12.40
2015,09,28,07,00,12.40
2015,09,28,07,01,12.30
2015,09,28,07,02,12.30
2015,09,28,07,03,12.30
2015,09,28,07,04,12.30
2015,09,28,07,05,12.30
2015,09,28,07,06,12.30
2015,09,28,07,07,12.20
2015,09,28,07,08,12.20
2015,09,28,07,09,12.20
2015,09,28,07,10,12.20
2015,09,28,07,11,12.20
2015,09,28,07,12,12.20
2015,09,28,07,13,12.20
2015,09,28,07,14,12.20
2015,09,28,07,15,12.20
2015,09,28,07,16,12.20
2015,09,28,07,17,12.20
2015,09,28,07,18,12.20
2015,09,28,07,19,12.20
2015,09,28,07,20,12.20
2015,09,28,07,21,12.20
2015,09,28,07,22,12.20
2015,09,28,07,23,12.20
2015,09,28,07,24,12.30
2015,09,28,07,25,12.30
2015,09,28,07,26,12.30
2015,09,28,07,27,12.30
2015,09,28,07,28,12.40
2015,09,28,07,29,12.40
2015,09,28,07,30,12.40
2015,09,28,07,31,12.40
2015,09,28,07,32,12.50
2015,09,28,07,33,12.50
2015,09,28,07,34,12.60
2015,09,28,07,35,12.60
2015,09,28,07,36,12.60
2015,09,28,07,37,12.70
2015,09,28,07,38,12.70
2015,09,28,07,39,12.70
2015,09,28,07,40,12.70
2015,09,28,07,41,12.70
2015,09,28,07,42,12.70
2015,09,28,07,43,12.70
2015,09,28,07,44,12.80
2015,09,28,07,45,12.80
2015,09,28,07,46,12.80
2015,09,28,07,47,12.80
2015,09,28,07,48,12.90
2015,09,28,07,49,12.90
2015,09,28,07,50,13.00
2015,09,28,07,51,13.00
2015,09,28,07,52,13.00
2015,09,28,07,53,13.10
2015,09,28,07,54,13.10
2015,09,28,07,55,13.10
2015,09,28,07,56,13.00
2015,09,28,07,57,13.00
2015,09,28,07,58,13.00
2015,09,28,07,59,13.00
2015,09,28,08,00,13.00
2015,09,28,08,01,13.00
2015,09,28,08,02,13.00
2015,09,28,08,03,13.00
2015,09,28,08,04,13.00
2015,09,28,08,05,13.00
2015,09,28,08,06,13.00
2015,09,28,08,07,13.00
2015,09,28,08,08,13.00
2015,09,28,08,09,13.00
2015,09,28,08,10,13.00
2015,09,28,08,11,13.00
2015,09,28,08,12,13.10
2015,09,28,08,13,13.10
2015,09,28,08,14,13.10
2015,09,28,08,15,13.10
2015,09,28,08,16,13.10
2015,09,28,08,17,13.10
2015,09,28,08,18,13.10
2015,09,28,08,19,13.20
2015,09,28,08,20,13.20
2015,09,28,08,21,13.20
2015,09,28,08,22,13.20
2015,09,28,08,23,13.20
2015,09,28,08,24,13.30
2015,09,28,08,25,13.30
2015,09,28,08,26,13.30
2015,09,28,08,27,13.30
2015,09,28,08,28,13.40
2015,09,28,08,29,13.40
2015,09,28,08,30,13.40
2015,09,28,08,31,13.40
2015,09,28,08,32,13.50
2015,09,28,08,33,13.50
2015,09,28,08,34,13.50
2015,09,28,08,35,13.60
2015,09,28,08,36,13.60
2015,09,28,08,37,13.60
2015,09,28,08,38,13.60
2015,09,28,08,39,13.70
2015,09,28,08,40,13.70
2015,09,28,08,41,13.70
2015,09,28,08,42,13.70
2015,09,28,08,43,13.80
2015,09,28,08,44,13.80
2015,09,28,08,45,13.80
2015,09,28,08,46,13.80
2015,09,28,08,47,13.80
2015,09,28,08,48,13.90
2015,09,28,08,49,13.90
2015,09,28,08,50,13.90
2015,09,28,08,51,13.90
2015,09,28,08,52,14.00
2015,09,28,08,53,14.00
2015,09,28,08,54,14.00
2015,09,28,08,55,14.00
2015,09,28,08,56,14.10
2015,09,28,08,57,14.10
2015,09,28,08,58,14.10
2015,09,28,08,59,14.20
2015,09,28,09,00,14.20
2015,09,28,09,01,14.20
2015,09,28,09,02,14.20
2015,09,28,09,03,14.20
2015,09,28,09,04,14.20
2015,09,28,09,05,14.20
2015,09,28,09,06,14.20
2015,09,28,09,07,14.20
2015,09,28,09,08,14.20
2015,09,28,09,09,14.30
2015,09,28,09,10,14.30
2015,09,28,09,11,14.30
2015,09,28,09,12,14.30
2015,09,28,09,13,14.30
2015,09,28,09,14,14.30
2015,09,28,09,15,14.30
2015,09,28,09,16,14.30
2015,09,28,09,17,14.30
2015,09,28,09,18,14.30
2015,09,28,09,19,14.30
2015,09,28,09,20,14.30
2015,09,28,09,21,14.30
2015,09,28,09,22,14.40
2015,09,28,09,23,14.40
2015,09,28,09,24,14.40
2015,09,28,09,25,14.40
2015,09,28,09,26,14.40
2015,09,28,09,27,14.40
2015,09,28,09,28,14.40
2015,09,28,09,29,14.40
2015,09,28,09,30,14.50
2015,09,28,09,31,14.50
2015,09,28,09,32,14.50
2015,09,28,09,33,14.50
2015,09,28,09,34,14.50
2015,09,28,09,35,14.50
2015,09,28,09,36,14.50
2015,09,28,09,37,14.50
2015,09,28,09,38,14.50
2015,09,28,09,39,14.60
2015,09,28,09,40,14.60
2015,09,28,09,41,14.60
2015,09,28,09,42,14.70
2015,09,28,09,43,14.70
2015,09,28,09,44,14.70
2015,09,28,09,45,14.70
2015,09,28,09,46,14.70
2015,09,28,09,47,14.70
2015,09,28,09,48,14.70
2015,09,28,09,49,14.70
2015,09,28,09,50,14.70
2015,09,28,09,51,14.70
2015,09,28,09,52,14.70
2015,09,28,09,53,14.70
2015,09,28,09,54,14.70
2015,09,28,09,55,14.70
2015,09,28,09,56,14.70
2015,09,28,09,57,14.70
2015,09,28,09,58,14.70
2015,09,28,09,59,14.70
2015,09,28,10,00,14.70
2015,09,28,10,01,14.70
2015,09,28,10,02,14.70
2015,09,28,10,03,14.70
2015,09,28,10,04,14.70
2015,09,28,10,05,14.70
2015,09,28,10,06,14.70
2015,09,28,10,07,14.70
2015,09,28,10,08,14.70
2015,09,28,10,09,14.70
2015,09,28,10,10,14.70
2015,09,28,10,11,14.80
2015,09,28,10,12,14.80
2015,09,28,10,13,14.80
2015,09,28,10,14,14.90
2015,09,28,10,15,14.90
2015,09,28,10,16,14.90
2015,09,28,10,17,14.90
2015,09,28,10,18,14.90
2015,09,28,10,19,14.90
2015,09,28,10,20,14.90
2015,09,28,10,21,14.90
2015,09,28,10,22,14.90
2015,09,28,10,23,14.90
2015,09,28,10,24,15.00
2015,09,28,10,25,15.00
2015,09,28,10,26,15.00
2015,09,28,10,27,15.00
2015,09,28,10,28,15.10
2015,09,28,10,29,15.10
2015,09,28,10,30,15.10
2015,09,28,10,31,15.10
2015,09,28,10,32,15.00
2015,09,28,10,33,15.00
2015,09,28,10,34,15.00
2015,09,28,10,35,15.00
2015,09,28,10,36,15.10
2015,09,28,10,37,15.10
2015,09,28,10,38,15.10
2015,09,28,10,39,15.10
2015,09,28,10,40,15.10
2015,09,28,10,41,15.10
2015,09,28,10,42,15.10
2015,09,28,10,43,15.00
2015,09,28,10,44,15.00
2015,09,28,10,45,15.00
2015,09,28,10,46,14.90
2015,09,28,10,47,14.90
2015,09,28,10,48,14.90
2015,09,28,10,49,14.90
2015,09,28,10,50,14.80
2015,09,28,10,51,14.80
2015,09,28,10,52,14.70
2015,09,28,10,53,14.70
2015,09,28,10,54,14.70
2015,09,28,10,55,14.70
2015,09,28,10,56,14.70
2015,09,28,10,57,14.70
2015,09,28,10,58,14.60
2015,09,28,10,59,14.50
2015,09,28,11,00,14.50
2015,09,28,11,01,14.40
2015,09,28,11,02,14.40
2015,09,28,11,03,14.40
2015,09,28,11,04,14.50
2015,09,28,11,05,14.50
2015,09,28,11,06,14.60
2015,09,28,11,07,14.60
2015,09,28,11,08,14.60
2015,09,28,11,09,14.60
2015,09,28,11,10,14.60
2015,09,28,11,11,14.60
2015,09,28,11,12,14.70
2015,09,28,11,13,14.70
2015,09,28,11,14,14.70
2015,09,28,11,15,14.70
2015,09,28,11,16,14.80
2015,09,28,11,17,14.80
2015,09,28,11,18,14.80
2015,09,28,11,19,14.80
2015,09,28,11,20,14.80
2015,09,28,11,21,14.80
2015,09,28,11,22,14.80
2015,09,28,11,23,14.80
2015,09,28,11,24,14.80
2015,09,28,11,25,14.70
2015,09,28,11,26,14.70
2015,09,28,11,27,14.70
2015,09,28,11,28,14.80
2015,09,28,11,29,14.80
2015,09,28,11,30,14.80
2015,09,28,11,31,14.80
2015,09,28,11,32,14.80
2015,09,28,11,33,14.80
2015,09,28,11,34,14.80
2015,09,28,11,35,14.80
2015,09,28,11,36,14.90
2015,09,28,11,37,14.80
2015,09,28,11,38,14.90
2015,09,28,11,39,14.90
2015,09,28,11,40,14.90
2015,09,28,11,41,15.00
2015,09,28,11,42,15.00
2015,09,28,11,43,15.10
2015,09,28,11,44,15.10
2015,09,28,11,45,15.10
2015,09,28,11,46,15.20
2015,09,28,11,47,15.20
2015,09,28,11,48,15.20
2015,09,28,11,49,15.20
2015,09,28,11,50,15.20
2015,09,28,11,51,15.20
2015,09,28,11,52,15.20
2015,09,28,11,53,15.20
2015,09,28,11,54,15.30
2015,09,28,11,55,15.30
2015,09,28,11,56,15.30
2015,09,28,11,57,15.30
2015,09,28,11,58,15.40
2015,09,28,11,59,15.40
2015,09,28,12,00,15.40
2015,09,28,12,01,15.40
2015,09,28,12,02,15.40
2015,09,28,12,03,15.40
2015,09,28,12,04,15.40
2015,09,28,12,05,15.40
2015,09,28,12,06,15.40
2015,09,28,12,07,15.50
2015,09,28,12,08,15.60
2015,09,28,12,09,15.60
2015,09,28,12,10,15.70
2015,09,28,12,11,15.70
2015,09,28,12,12,15.70
2015,09,28,12,13,15.80
2015,09,28,12,14,15.80
2015,09,28,12,15,15.80
2015,09,28,12,16,15.90
2015,09,28,12,17,15.90
2015,09,28,12,18,15.90
2015,09,28,12,19,15.90
2015,09,28,12,20,16.00
2015,09,28,12,21,16.00
2015,09,28,12,22,16.10
2015,09,28,12,23,16.10
2015,09,28,12,24,16.10
2015,09,28,12,25,16.10
2015,09,28,12,26,16.10
2015,09,28,12,27,16.10
2015,09,28,12,28,16.10
2015,09,28,12,29,16.10
2015,09,28,12,30,16.10
2015,09,28,12,31,16.10
2015,09,28,12,32,16.10
2015,09,28,12,33,16.10
2015,09,28,12,34,16.10
2015,09,28,12,35,16.10
2015,09,28,12,36,16.20
2015,09,28,12,37,16.20
2015,09,28,12,38,16.20
2015,09,28,12,39,16.20
2015,09,28,12,40,16.20
2015,09,28,12,41,16.20
2015,09,28,12,42,16.20
2015,09,28,12,43,16.30
2015,09,28,12,44,16.30
2015,09,28,12,45,16.30
2015,09,28,12,46,16.30
2015,09,28,12,47,16.30
2015,09,28,12,48,16.30
2015,09,28,12,49,16.30
2015,09,28,12,50,16.30
2015,09,28,12,51,16.20
2015,09,28,12,52,16.20
2015,09,28,12,53,16.20
2015,09,28,12,54,16.20
2015,09,28,12,55,16.20
2015,09,28,12,56,16.20
2015,09,28,12,57,16.20
2015,09,28,12,58,16.30
2015,09,28,12,59,16.30
2015,09,28,13,00,16.30
2015,09,28,13,01,16.30
2015,09,28,13,02,16.30
2015,09,28,13,03,16.30
2015,09,28,13,04,16.30
2015,09,28,13,05,16.30
2015,09,28,13,06,16.40
2015,09,28,13,07,16.40
2015,09,28,13,08,16.50
2015,09,28,13,09,16.50
2015,09,28,13,10,16.50
2015,09,28,13,11,16.60
2015,09,28,13,12,16.60
2015,09,28,13,13,16.60
2015,09,28,13,14,16.60
2015,09,28,13,15,16.70
2015,09,28,13,16,16.70
2015,09,28,13,17,16.80
2015,09,28,13,18,16.80
2015,09,28,13,19,16.80
2015,09,28,13,20,16.80
2015,09,28,13,21,16.70
2015,09,28,13,22,16.70
2015,09,28,13,23,16.70
2015,09,28,13,24,16.70
2015,09,28,13,25,16.70
2015,09,28,13,26,16.70
2015,09,28,13,27,16.70
2015,09,28,13,28,16.70
2015,09,28,13,29,16.80
2015,09,28,13,30,16.80
2015,09,28,13,31,16.90
2015,09,28,13,32,17.00
2015,09,28,13,33,17.00
2015,09,28,13,34,16.90
2015,09,28,13,35,16.90
2015,09,28,13,36,16.90
2015,09,28,13,37,16.90
2015,09,28,13,38,16.90
2015,09,28,13,39,16.90
2015,09,28,13,40,16.90
2015,09,28,13,41,16.90
2015,09,28,13,42,16.90
2015,09,28,13,43,16.90
2015,09,28,13,44,16.90
2015,09,28,13,45,16.80
2015,09,28,13,46,16.90
2015,09,28,13,47,16.90
2015,09,28,13,48,16.90
2015,09,28,13,49,16.90
2015,09,28,13,50,17.00
2015,09,28,13,51,17.00
2015,09,28,13,52,17.00
2015,09,28,13,53,17.00
2015,09,28,13,54,17.10
2015,09,28,13,55,17.10
2015,09,28,13,56,17.10
2015,09,28,13,57,17.10
2015,09,28,13,58,17.10
2015,09,28,13,59,17.10
2015,09,28,14,00,17.10
2015,09,28,14,01,17.20
2015,09,28,14,02,17.20
2015,09,28,14,03,17.20
2015,09,28,14,04,17.20
2015,09,28,14,05,17.20
2015,09,28,14,06,17.30
2015,09,28,14,07,17.40
2015,09,28,14,08,17.40
2015,09,28,14,09,17.50
2015,09,28,14,10,17.40
2015,09,28,14,11,17.50
2015,09,28,14,12,17.60
2015,09,28,14,13,17.70
2015,09,28,14,14,17.70
2015,09,28,14,15,17.80
2015,09,28,14,16,17.70
2015,09,28,14,17,17.70
2015,09,28,14,18,17.70
2015,09,28,14,19,17.70
2015,09,28,14,20,17.70
2015,09,28,14,21,17.80
2015,09,28,14,22,17.80
2015,09,28,14,23,17.80
2015,09,28,14,24,17.80
2015,09,28,14,25,17.90
2015,09,28,14,26,17.90
2015,09,28,14,27,18.00
2015,09,28,14,28,18.00
2015,09,28,14,29,18.10
2015,09,28,14,30,18.10
2015,09,28,14,31,18.10
2015,09,28,14,32,18.20
2015,09,28,14,33,18.20
2015,09,28,14,34,18.20
2015,09,28,14,35,18.20
2015,09,28,14,36,18.20
2015,09,28,14,37,18.20
2015,09,28,14,38,18.20
2015,09,28,14,39,18.10
2015,09,28,14,40,18.10
2015,09,28,14,41,18.10
2015,09,28,14,42,18.10
2015,09,28,14,43,18.20
2015,09,28,14,44,18.20
2015,09,28,14,45,18.20
2015,09,28,14,46,18.20
2015,09,28,14,47,18.20
2015,09,28,14,48,18.30
2015,09,28,14,49,18.30
2015,09,28,14,50,18.30
2015,09,28,14,51,18.40
2015,09,28,14,52,18.40
2015,09,28,14,53,18.30
2015,09,28,14,54,18.30
2015,09,28,14,55,18.30
2015,09,28,14,56,18.30
2015,09,28,14,57,18.30
2015,09,28,14,58,18.30
2015,09,28,14,59,18.30
2015,09,28,15,00,18.30
2015,09,28,15,01,18.30
2015,09,28,15,02,18.30
2015,09,28,15,03,18.20
2015,09,28,15,04,18.30
2015,09,28,15,05,18.30
2015,09,28,15,06,18.30
2015,09,28,15,07,18.30
2015,09,28,15,08,18.30
2015,09,28,15,09,18.30
2015,09,28,15,10,18.30
2015,09,28,15,11,18.30
2015,09,28,15,12,18.30
2015,09,28,15,13,18.30
2015,09,28,15,14,18.30
2015,09,28,15,15,18.30
2015,09,28,15,16,18.30
2015,09,28,15,17,18.30
2015,09,28,15,18,18.30
2015,09,28,15,19,18.30
2015,09,28,15,20,18.30
2015,09,28,15,21,18.30
2015,09,28,15,22,18.30
2015,09,28,15,23,18.20
2015,09,28,15,24,18.20
2015,09,28,15,25,18.20
2015,09,28,15,26,18.20
2015,09,28,15,27,18.20
2015,09,28,15,28,18.20
2015,09,28,15,29,18.20
2015,09,28,15,30,18.30
2015,09,28,15,31,18.30
2015,09,28,15,32,18.30
2015,09,28,15,33,18.20
2015,09,28,15,34,18.20
2015,09,28,15,35,18.20
2015,09,28,15,36,18.20
2015,09,28,15,37,18.20
2015,09,28,15,38,18.20
2015,09,28,15,39,18.20
2015,09,28,15,40,18.20
2015,09,28,15,41,18.20
2015,09,28,15,42,18.20
2015,09,28,15,43,18.30
2015,09,28,15,44,18.30
2015,09,28,15,45,18.20
2015,09,28,15,46,18.20
2015,09,28,15,47,18.20
2015,09,28,15,48,18.30
2015,09,28,15,49,18.20
2015,09,28,15,50,18.30
2015,09,28,15,51,18.30
2015,09,28,15,52,18.30
2015,09,28,15,53,18.30
2015,09,28,15,54,18.30
2015,09,28,15,55,18.30
2015,09,28,15,56,18.30
2015,09,28,15,57,18.30
2015,09,28,15,58,18.30
2015,09,28,15,59,18.30
2015,09,28,16,00,18.40
2015,09,28,16,01,18.40
2015,09,28,16,02,18.40
2015,09,28,16,03,18.30
2015,09,28,16,04,18.30
2015,09,28,16,05,18.30
2015,09,28,16,06,18.20
2015,09,28,16,07,18.30
2015,09,28,16,08,18.30
2015,09,28,16,09,18.30
2015,09,28,16,10,18.30
2015,09,28,16,11,18.20
2015,09,28,16,12,18.20
2015,09,28,16,13,18.20
2015,09,28,16,14,18.20
2015,09,28,16,15,18.20
2015,09,28,16,16,18.20
2015,09,28,16,17,18.30
2015,09,28,16,18,18.30
2015,09,28,16,19,18.30
2015,09,28,16,20,18.30
2015,09,28,16,21,18.30
2015,09,28,16,22,18.30
2015,09,28,16,23,18.30
2015,09,28,16,24,18.40
2015,09,28,16,25,18.40
2015,09,28,16,26,18.40
2015,09,28,16,27,18.40
2015,09,28,16,28,18.50
2015,09,28,16,29,18.50
2015,09,28,16,30,18.50
2015,09,28,16,31,18.60
2015,09,28,16,32,18.60
2015,09,28,16,33,18.60
2015,09,28,16,34,18.60
2015,09,28,16,35,18.70
2015,09,28,16,36,18.70
2015,09,28,16,37,18.70
2015,09,28,16,38,18.70
2015,09,28,16,39,18.70
2015,09,28,16,40,18.60
2015,09,28,16,41,18.60
2015,09,28,16,42,18.60
2015,09,28,16,43,18.60
2015,09,28,16,44,18.60
2015,09,28,16,45,18.60
2015,09,28,16,46,18.50
2015,09,28,16,47,18.60
2015,09,28,16,48,18.60
2015,09,28,16,49,18.60
2015,09,28,16,50,18.60
2015,09,28,16,51,18.70
2015,09,28,16,52,18.70
2015,09,28,16,53,18.70
2015,09,28,16,54,18.70
2015,09,28,16,55,18.70
2015,09,28,16,56,18.70
2015,09,28,16,57,18.70
2015,09,28,16,58,18.70
2015,09,28,16,59,18.70
2015,09,28,17,00,18.70
2015,09,28,17,01,18.70
2015,09,28,17,02,18.70
2015,09,28,17,03,18.70
2015,09,28,17,04,18.80
2015,09,28,17,05,18.80
2015,09,28,17,06,18.80
2015,09,28,17,07,18.80
2015,09,28,17,08,18.80
2015,09,28,17,09,18.70
2015,09,28,17,10,18.70
2015,09,28,17,11,18.70
2015,09,28,17,12,18.70
2015,09,28,17,13,18.80
2015,09,28,17,14,18.80
2015,09,28,17,15,18.80
2015,09,28,17,16,18.80
2015,09,28,17,17,18.80
2015,09,28,17,18,18.80
2015,09,28,17,19,18.80